CW4167 Weather Reports


time (UTC)temp
C
wind
direction
speed
KPH
gust
KPH
rain 1hr
cm
rain 24hr
cm
rain mn
cm
humidity
%
barometer
mb
20260503204205 12 20 0.0 1.6 0.13 0.33 0.33 87 1005.6
20260503202209 12 21 4.8 4.8 0.15 0.28 0.28 87 1005.8
20260503201705 12 21 3.2 4.8 0.15 0.28 0.28 87 1005.8
20260503194205 13 355 8.0 9.7 0.08 0.18 0.18 85 1006.3
20260503193706 13 293 3.2 4.8 0.05 0.15 0.15 85 1006.7
20260503193205 13 22 1.6 4.8 0.03 0.13 0.13 84 1006.7
20260503192705 13 23 3.2 8.0 0.00 0.10 0.10 84 1006.4
20260503192206 13 22 4.8 11.3 0.00 0.10 0.10 84 1006.4
20260503191705 13 350 8.0 9.7 0.00 0.10 0.10 83 1006.4
20260503191204 13 339 6.4 9.7 0.00 0.10 0.10 83 1006.0
20260503185705 13 353 3.2 3.2 0.00 0.10 0.10 82 1006.0
20260503185206 13 353 4.8 8.0 0.00 0.10 0.10 81 1005.9
20260503184205 13 0 8.0 9.7 0.00 0.10 0.10 81 1005.8
20260503183705 13 7 4.8 9.7 0.00 0.10 0.10 81 1005.7
20260503183205 13 9 8.0 9.7 0.00 0.10 0.10 80 1005.7
20260503180205 14 353 4.8 8.0 0.00 0.10 0.10 80 1005.9
20260503174205 15 9 1.6 4.8 0.00 0.10 0.10 79 1006.2
20260503173204 15 9 3.2 4.8 0.00 0.10 0.10 79 1006.2
20260503172705 15 9 3.2 4.8 0.00 0.10 0.10 78 1006.3
20260503171705 15 8 3.2 4.8 0.00 0.10 0.10 77 1006.3
20260503170205 15 16 4.8 11.3 0.00 0.10 0.10 75 1006.3
20260503150704 17 288 6.4 9.7 0.00 0.10 0.10 67 1007.6
20260503131204 16 215 4.8 8.0 0.00 0.10 0.10 79 1008.8
20260503120206 14 254 4.8 8.0 0.10 0.10 0.10 83 1009.3
20260503110206 15 262 8.0 11.3 0.00 0.00 0.00 72 1009.6
20260503081207 12 312 3.2 8.0 0.00 0.00 0.00 83 1009.9
20260503080206 12 243 4.8 9.7 0.00 0.00 0.00 83 1009.9
20260503072205 11 292 3.2 4.8 0.00 0.00 0.00 86 1009.8
20260503071706 11 294 6.4 9.7 0.00 0.00 0.00 87 1009.7
20260503070705 11 321 3.2 4.8 0.00 0.00 0.00 87 1009.6
20260503070205 11 318 4.8 8.0 0.00 0.00 0.00 87 1009.6
20260503060206 10 323 4.8 9.7 0.00 0.00 0.00 88 1009.4
20260503054705 10 320 14.5 20.9 0.00 0.00 0.00 87 1009.5
20260503053708 10 307 8.0 20.9 0.00 0.00 0.00 87 1009.5
20260503053206 10 310 9.7 22.5 0.00 0.00 0.00 87 1009.4
20260503045706 11 291 11.3 16.1 0.00 0.00 0.00 88 1009.4
20260503045207 11 292 8.0 16.1 0.00 0.00 0.00 88 1009.4
20260503044206 11 287 8.0 12.9 0.00 0.00 0.00 88 1009.2
20260503043705 10 278 8.0 16.1 0.00 0.00 0.00 88 1009.2
20260503042205 10 242 3.2 8.0 0.00 0.00 0.00 87 1009.4
20260503041705 10 237 1.6 4.8 0.00 0.00 0.00 87 1009.4
20260503035705 10 189 1.6 9.7 0.00 0.00 0.00 86 1009.6
20260503035205 10 167 6.4 9.7 0.00 0.00 0.00 85 1009.6
20260503034205 10 158 4.8 4.8 0.00 0.00 0.00 85 1009.3
20260503033206 10 166 6.4 9.7 0.00 0.00 0.00 84 1009.1
20260503032206 10 178 8.0 9.7 0.00 0.00 0.00 84 1009.1
20260503031706 10 188 4.8 9.7 0.00 0.00 0.00 84 1009.2
20260503030205 10 198 8.0 9.7 0.00 0.00 0.00 83 1009.5
20260503025207 11 190 4.8 9.7 0.00 0.00 0.00 82 1009.5
20260503024205 11 214 4.8 11.3 0.00 0.00 0.00 82 1009.4
20260503022706 11 188 6.4 12.9 0.00 0.00 0.00 80 1009.3
20260503021206 11 204 4.8 11.3 0.00 0.00 0.00 78 1009.4
20260503020207 11 175 9.7 12.9 0.00 0.00 0.00 77 1009.4
20260503015706 11 217 8.0 16.1 0.00 0.00 0.00 76 1009.4
20260503013206 11 193 8.0 11.3 0.00 0.00 0.00 73 1009.4
20260503012706 11 180 4.8 9.7 0.00 0.00 0.00 72 1009.4
20260503012205 11 204 6.4 11.3 0.00 0.00 0.00 71 1009.4
20260503011705 11 210 6.4 8.0 0.00 0.00 0.00 70 1009.5
20260503011205 11 185 6.4 8.0 0.00 0.00 0.00 70 1009.5
20260503010706 11 185 3.2 8.0 0.00 0.00 0.00 69 1009.5
20260503005706 11 158 6.4 9.7 0.00 0.00 0.00 68 1009.4
20260503004206 12 165 3.2 4.8 0.00 0.00 0.00 67 1009.5
20260503003706 12 165 1.6 3.2 0.00 0.00 0.00 67 1009.5
20260503003205 12 165 4.8 8.0 0.00 0.00 0.00 66 1009.4
20260503002705 12 166 4.8 8.0 0.00 0.00 0.00 66 1009.5
20260503001706 12 179 6.4 8.0 0.00 0.00 0.00 66 1009.5
20260502235205 12 178 6.4 9.7 0.00 0.00 0.00 64 1009.8
20260502234207 13 165 8.0 9.7 0.00 0.00 0.00 63 1009.9
20260502233208 13 158 4.8 8.0 0.00 0.00 0.00 62 1010.1
20260502231705 13 157 4.8 8.0 0.00 0.00 0.00 61 1010.3
20260502231205 13 166 8.0 9.7 0.00 0.00 0.00 61 1010.3
20260502224206 14 230 3.2 8.0 0.00 0.00 0.00 58 1010.4
20260502223705 14 197 4.8 9.7 0.00 0.00 0.00 58 1010.4
20260502222706 15 185 4.8 8.0 0.00 0.00 0.00 57 1010.4
20260502215206 16 177 4.8 8.0 0.00 0.00 0.00 55 1010.5
20260502214206 16 217 4.8 8.0 0.00 0.00 0.00 54 1010.5
20260502212206 16 175 6.4 9.7 0.00 0.00 0.00 54 1010.6
20260502211706 16 181 4.8 8.0 0.00 0.00 0.00 54 1010.6
20260502210206 16 164 6.4 9.7 0.00 0.00 0.00 52 1010.7
20260502205706 16 183 4.8 8.0 0.00 0.00 0.00 51 1010.7
20260502205205 16 187 4.8 8.0 0.00 0.00 0.00 51 1010.8
20260502204705 16 251 4.8 8.0 0.00 0.00 0.00 50 1010.7